[[{"header":{"parameterUnit":"m.s-1","parameterCategory":1,"la1":30.2991,"la2":30.254,"lo1":-89.0895,"lo2":-89.0444,"dy":0.0017,"dx":0.0017,"nx":28,"ny":28,"refTime":"2024-02-01T09:00:00:Z","depth":0,"parameterNumber":2,"parameterNumberName":"U-component_of_WINDS"},"data":[0,0,0,0,0,0,0,0,0,0,0,0,0,0,0,0,0,0,0,0,0,0,0,0,0,0,0,0,0,0,0,0,0,0,0,0,0,0,0,0,0,0,0,0,0,0,0,0,0,0,0,0,0,0,0,0,0,0,-0.4637,-0.4637,0,-0.466,-0.466,-0.4661,-0.4636,-0.4636,-0.4635,-0.4634,-0.466,-0.4661,-0.4663,0,0,0,0,0,0,0,0,0,0,0,0,0,-0.4574,-0.4575,-0.4637,-0.4637,-0.4638,-0.466,-0.466,-0.4661,-0.4637,-0.4636,-0.4634,-0.4633,-0.4659,-0.4661,-0.4663,0,0,0,0,0,0,0,0,0,0,0,0,0,-0.46,-0.4576,-0.4637,-0.4628,-0.4628,-0.466,-0.466,-0.4661,-0.4637,-0.4635,-0.4634,-0.4633,-0.4659,-0.4661,-0.4663,-0.4706,0,0,-0.467,-0.4671,0,0,0,0,0,0,0,0,-0.4598,-0.4602,-0.4629,-0.4629,-0.4628,-0.4644,-0.4648,-0.4676,-0.4637,-0.4634,-0.4634,-0.4632,-0.4656,-0.4658,-0.4666,-0.4707,-0.4708,-0.4671,-0.4672,-0.4673,-0.4674,0,0,0,0,0,0,0,-0.4597,-0.4601,-0.4646,-0.463,-0.4629,-0.4624,-0.4626,-0.4653,-0.4652,-0.4634,-0.4632,-0.4635,-0.4655,-0.4664,-0.4666,-0.4709,-0.4671,-0.4673,-0.4674,-0.4675,-0.4786,-0.4788,0,0,0,0,0,0,-0.4596,-0.46,-0.4645,-0.4647,-0.461,-0.4626,-0.4628,-0.464,-0.4652,-0.4652,-0.4636,-0.4634,-0.466,-0.4664,-0.4667,-0.4718,-0.4673,-0.4675,-0.4677,-0.4785,-0.4787,-0.4788,0,0,0,0,0,0,-0.4594,-0.46,-0.4645,-0.4623,-0.4628,-0.4629,-0.4642,-0.4642,-0.465,-0.4654,-0.4654,-0.4645,-0.4659,-0.4664,-0.4696,-0.4718,-0.4676,-0.4678,-0.4783,-0.4785,-0.4787,-0.482,0,0,0,0,0,0,-0.4593,-0.46,-0.4615,-0.4623,-0.4629,-0.4673,-0.4644,-0.4643,-0.4654,-0.4651,-0.4662,-0.4662,-0.4659,-0.4693,-0.4699,-0.4721,-0.468,-0.4781,-0.4784,-0.4787,-0.4817,-0.4823,-0.4828,0,0,0,0,0,-0.459,-0.4624,-0.4616,-0.4622,-0.4649,-0.4674,-0.4678,-0.4672,-0.4656,-0.4672,-0.4674,-0.4662,-0.4715,-0.4696,-0.4703,-0.4726,-0.4779,-0.4783,-0.4786,-0.4814,-0.4822,-0.4828,0,0,0,0,0,0,-0.462,-0.4625,-0.4616,-0.4654,-0.4664,-0.467,-0.469,-0.468,-0.4696,-0.4693,-0.4686,-0.4688,-0.4723,-0.4728,-0.4707,-0.4768,-0.4745,-0.4749,-0.4764,-0.4771,-0.4776,-0.4775,-0.4682,0,0,0,0,0,-0.4631,-0.465,-0.4654,-0.4686,-0.4691,-0.469,-0.4701,-0.4696,-0.4706,-0.471,-0.4715,-0.4726,-0.4745,-0.4758,-0.4776,-0.4817,-0.4819,-0.4836,-0.4842,-0.4847,-0.4851,-0.4873,-0.4881,-0.48,-0.48,-0.4799,0,0,-0.4653,-0.4658,-0.4671,-0.4692,-0.4699,-0.472,-0.4694,-0.4717,-0.4733,-0.4714,-0.4745,-0.4749,-0.4761,-0.4798,-0.4814,-0.4803,-0.4874,-0.4851,-0.4855,-0.4857,-0.4877,-0.4885,-0.4892,-0.4802,-0.4801,-0.4801,0,0,-0.4705,-0.4711,-0.4738,-0.4746,-0.4756,-0.4755,-0.4762,-0.477,-0.4771,-0.4802,-0.4788,-0.4807,-0.484,-0.4849,-0.4858,-0.4912,-0.4901,-0.4918,-0.4948,-0.497,-0.4976,-0.4982,-0.5001,-0.5008,-0.4922,-0.4923,-0.4923,0,-0.4732,-0.4762,-0.4754,-0.4778,-0.4788,-0.4771,-0.4799,-0.4807,-0.4823,-0.483,-0.4817,-0.4858,-0.4865,-0.4903,-0.4917,-0.4924,-0.4932,-0.4917,-0.4976,-0.4981,-0.4986,-0.5005,-0.5012,-0.4925,-0.4924,-0.4924,-0.4924,0,-0.4795,-0.4816,-0.4837,-0.4852,-0.4864,-0.489,-0.4887,-0.49,-0.4893,-0.4894,-0.4925,-0.4932,-0.4951,-0.496,-0.4954,-0.4998,-0.499,-0.4977,-0.4953,-0.4996,-0.5014,-0.5021,-0.4927,-0.4927,-0.4926,-0.4926,0,0,-0.4867,-0.4876,-0.4884,-0.4891,-0.4901,-0.4917,-0.4943,-0.496,-0.4972,-0.4983,-0.5005,-0.5033,-0.502,-0.503,-0.5025,-0.5044,-0.5086,-0.5027,-0.5027,-0.5038,-0.5135,-0.5145,-0.5154,-0.5079,-0.508,-0.5081,-0.5134,0,-0.4919,-0.4962,-0.4955,-0.4997,-0.5016,-0.5,-0.5022,-0.5031,-0.5032,-0.5049,-0.505,-0.507,-0.5051,-0.5057,-0.5075,-0.5077,-0.5106,-0.5073,-0.5099,-0.51,-0.5097,-0.5163,-0.5174,-0.5224,-0.5141,-0.5142,-0.5143,0,-0.4986,-0.4999,-0.5042,-0.5049,-0.5057,-0.5077,-0.5092,-0.5108,-0.5118,-0.5117,-0.5128,-0.512,-0.5145,-0.5121,-0.5156,-0.5134,-0.5144,-0.5147,-0.5149,-0.5151,-0.5124,-0.5168,-0.5239,-0.5247,-0.5153,-0.5152,-0.5151,0,-0.5034,-0.5063,-0.5092,-0.5098,-0.5107,-0.5121,-0.5125,-0.5133,-0.5144,-0.5158,-0.5165,-0.5182,-0.5191,-0.5204,-0.5201,-0.5183,-0.5237,-0.5212,-0.5237,-0.5238,-0.525,-0.5249,-0.5325,-0.5256,-0.5256,-0.5256,-0.5256,0,-0.5093,-0.5121,-0.5114,-0.5132,-0.5162,-0.5154,-0.5185,-0.5187,-0.5194,-0.5213,-0.52,-0.5219,-0.5212,-0.523,-0.5227,-0.5257,-0.5261,-0.5262,-0.5261,-0.5263,-0.5263,-0.527,-0.5267,-0.5258,-0.5257,-0.5257,-0.5257,0,-0.5153,-0.5149,-0.518,-0.5185,-0.5187,-0.5209,-0.5214,-0.5231,-0.5231,-0.5255,-0.526,-0.5259,-0.5279,-0.5277,-0.53,-0.5298,-0.5335,-0.533,-0.5331,-0.533,-0.5356,-0.5354,-0.5439,-0.5449,-0.5373,-0.5374,-0.5375,0,-0.5191,-0.5211,-0.5218,-0.523,-0.5235,-0.5253,-0.5264,-0.5257,-0.5268,-0.5281,-0.5297,-0.5315,-0.533,-0.5363,-0.5365,-0.5383,-0.5378,-0.5406,-0.5381,-0.5382,-0.5379,-0.5378,-0.538,-0.5412,-0.5413,-0.5413,-0.5414,0,-0.5259,-0.5256,-0.5272,-0.5287,-0.53,-0.5311,-0.5322,-0.5332,-0.5325,-0.5339,-0.5359,-0.5371,-0.5393,-0.5413,-0.5429,-0.5434,-0.5423,-0.5422,-0.5429,-0.5432,-0.5432,-0.5432,-0.5346,-0.542,-0.542,-0.5419,-0.5419,-0.5419,-0.531,-0.5327,-0.5334,-0.5352,-0.5359,-0.5368,-0.5385,-0.5386,-0.5402,-0.5419,-0.5414,-0.5437,-0.5446,-0.5466,-0.5473,-0.5491,-0.5481,-0.5491,-0.5493,-0.5496,-0.5499,-0.5429,-0.5494,-0.5494,-0.5494,-0.5493,-0.5493,0,-0.5377,-0.5381,-0.5397,-0.5412,-0.5425,-0.5413,-0.5424,-0.5437,-0.5456,-0.5465,-0.548,-0.5503,-0.5521,-0.5524,-0.5541,-0.5555,-0.555,-0.556,-0.5559,-0.556,-0.5507,-0.5499,-0.5563,-0.5563,-0.5563,-0.5563,-0.5563,-0.5563,-0.5414,-0.5443,-0.5441,-0.5473,-0.5476,-0.5498,-0.5505,-0.5514,-0.5521,-0.5547,-0.5561,-0.5563,-0.5569,-0.5587,-0.5603,-0.5603,-0.5611,-0.5622,-0.562,-0.5571,-0.5564,-0.5557,-0.555,-0.5623,-0.5623,-0.5672,-0.5673,-0.5673]},{"header":{"parameterUnit":"m.s-1","parameterCategory":1,"la1":30.2991,"la2":30.254,"lo1":-89.0895,"lo2":-89.0444,"dy":0.0017,"dx":0.0017,"nx":28,"ny":28,"refTime":"2024-02-01T09:00:00:Z","depth":0,"parameterNumber":3,"parameterNumberName":"V-component_of_WINDS"},"data":[0,0,0,0,0,0,0,0,0,0,0,0,0,0,0,0,0,0,0,0,0,0,0,0,0,0,0,0,0,0,0,0,0,0,0,0,0,0,0,0,0,0,0,0,0,0,0,0,0,0,0,0,0,0,0,0,0,0,-3.0466,-3.0467,0,-3.0506,-3.0507,-3.0507,-3.0459,-3.0458,-3.0456,-3.0454,-3.0492,-3.0494,-3.0497,0,0,0,0,0,0,0,0,0,0,0,0,0,-3.0346,-3.0348,-3.0466,-3.0467,-3.0467,-3.0506,-3.0507,-3.0507,-3.046,-3.0457,-3.0455,-3.0453,-3.0491,-3.0494,-3.0497,0,0,0,0,0,0,0,0,0,0,0,0,0,-3.0393,-3.0349,-3.0466,-3.0448,-3.0447,-3.0506,-3.0507,-3.0508,-3.046,-3.0457,-3.0455,-3.0452,-3.049,-3.0494,-3.0498,-3.0575,0,0,-3.051,-3.0511,0,0,0,0,0,0,0,0,-3.039,-3.0397,-3.045,-3.045,-3.0448,-3.0475,-3.0478,-3.053,-3.0461,-3.0455,-3.0454,-3.0451,-3.0488,-3.0492,-3.0505,-3.0577,-3.0579,-3.051,-3.0512,-3.0514,-3.0515,0,0,0,0,0,0,0,-3.0387,-3.0395,-3.0482,-3.0451,-3.045,-3.0437,-3.0441,-3.0488,-3.0486,-3.0455,-3.0452,-3.0458,-3.0487,-3.0502,-3.0506,-3.0579,-3.051,-3.0513,-3.0516,-3.0517,-3.0717,-3.0719,0,0,0,0,0,0,-3.0386,-3.0393,-3.0481,-3.0483,-3.0412,-3.0442,-3.0446,-3.0469,-3.0485,-3.0485,-3.046,-3.0455,-3.0496,-3.0501,-3.0507,-3.0599,-3.0514,-3.0518,-3.052,-3.0714,-3.0717,-3.072,0,0,0,0,0,0,-3.0384,-3.0395,-3.0479,-3.0437,-3.0447,-3.0447,-3.0473,-3.0471,-3.0486,-3.0489,-3.0488,-3.0475,-3.0494,-3.0501,-3.0559,-3.06,-3.052,-3.0523,-3.071,-3.0715,-3.0719,-3.0784,0,0,0,0,0,0,-3.0381,-3.0394,-3.0424,-3.0438,-3.045,-3.0532,-3.0476,-3.0474,-3.0493,-3.0488,-3.0503,-3.0503,-3.0493,-3.0553,-3.0563,-3.0604,-3.0526,-3.0707,-3.0712,-3.0717,-3.0778,-3.079,-3.08,0,0,0,0,0,-3.0377,-3.044,-3.0426,-3.0437,-3.0487,-3.0534,-3.054,-3.0528,-3.0497,-3.0527,-3.0528,-3.0502,-3.0594,-3.056,-3.057,-3.0613,-3.0704,-3.0711,-3.0717,-3.0773,-3.0787,-3.08,0,0,0,0,0,0,-3.0429,-3.0442,-3.0426,-3.0496,-3.0515,-3.0526,-3.0563,-3.0544,-3.057,-3.0564,-3.0547,-3.0551,-3.0612,-3.0618,-3.058,-3.0689,-3.0644,-3.0652,-3.0682,-3.0696,-3.0707,-3.0704,-3.053,0,0,0,0,0,-3.0449,-3.0487,-3.0495,-3.0557,-3.0567,-3.0564,-3.0583,-3.0573,-3.059,-3.0598,-3.0603,-3.0621,-3.0653,-3.0675,-3.0705,-3.0779,-3.0781,-3.0813,-3.0824,-3.0833,-3.0841,-3.088,-3.0894,-3.0742,-3.0742,-3.0742,0,0,-3.049,-3.0502,-3.0527,-3.0567,-3.058,-3.0619,-3.057,-3.0613,-3.0641,-3.0604,-3.0659,-3.0664,-3.0682,-3.0748,-3.0777,-3.0755,-3.0884,-3.0841,-3.0849,-3.0851,-3.0888,-3.0903,-3.0915,-3.0746,-3.0745,-3.0745,0,0,-3.0585,-3.0598,-3.0651,-3.0665,-3.0686,-3.0684,-3.0696,-3.0711,-3.0713,-3.0768,-3.0741,-3.0774,-3.083,-3.0845,-3.0859,-3.0961,-3.0938,-3.0971,-3.1028,-3.1067,-3.1078,-3.1089,-3.1125,-3.1138,-3.0979,-3.0979,-3.0979,0,-3.0634,-3.0692,-3.068,-3.0725,-3.0744,-3.0713,-3.0765,-3.078,-3.0809,-3.0822,-3.0797,-3.0867,-3.0877,-3.0946,-3.0971,-3.0984,-3.0997,-3.0969,-3.1078,-3.1088,-3.1098,-3.1132,-3.1146,-3.0983,-3.0982,-3.0982,-3.0982,0,-3.075,-3.0791,-3.0831,-3.0861,-3.0884,-3.0933,-3.0927,-3.0952,-3.094,-3.094,-3.0996,-3.1008,-3.104,-3.1055,-3.1043,-3.1123,-3.1108,-3.1081,-3.1035,-3.1117,-3.1148,-3.1161,-3.0989,-3.0987,-3.0986,-3.0985,0,0,-3.0878,-3.0903,-3.0917,-3.0931,-3.0952,-3.0983,-3.103,-3.1063,-3.1084,-3.1105,-3.1144,-3.1193,-3.1168,-3.1185,-3.1174,-3.1208,-3.1288,-3.1177,-3.1177,-3.1197,-3.1376,-3.1396,-3.1411,-3.1273,-3.1275,-3.1277,-3.1374,0,-3.0973,-3.1056,-3.1047,-3.1126,-3.1163,-3.1135,-3.1176,-3.1193,-3.1195,-3.1226,-3.1227,-3.1262,-3.1227,-3.1237,-3.1269,-3.1271,-3.1323,-3.1264,-3.1308,-3.1309,-3.1304,-3.1428,-3.1449,-3.154,-3.1386,-3.1388,-3.139,0,-3.1095,-3.1122,-3.1205,-3.1222,-3.1237,-3.1274,-3.1303,-3.1334,-3.1352,-3.1351,-3.1371,-3.1354,-3.1401,-3.1355,-3.1418,-3.1378,-3.1395,-3.1399,-3.1402,-3.1405,-3.1354,-3.1434,-3.1568,-3.1582,-3.1409,-3.1408,-3.1406,0,-3.118,-3.1237,-3.1294,-3.1307,-3.1327,-3.1354,-3.1364,-3.138,-3.14,-3.1426,-3.1438,-3.1469,-3.1485,-3.1508,-3.15,-3.1467,-3.1565,-3.1518,-3.1564,-3.1565,-3.1585,-3.1584,-3.1725,-3.1598,-3.1598,-3.1597,-3.1597,0,-3.1286,-3.1338,-3.1333,-3.1368,-3.1425,-3.1414,-3.147,-3.1476,-3.1491,-3.1526,-3.1503,-3.1536,-3.1524,-3.1556,-3.1549,-3.1603,-3.161,-3.161,-3.1608,-3.1612,-3.1612,-3.1622,-3.1616,-3.1601,-3.16,-3.1599,-3.1599,0,-3.139,-3.1389,-3.1449,-3.1464,-3.1469,-3.1511,-3.1523,-3.1556,-3.1556,-3.1601,-3.161,-3.161,-3.1647,-3.1642,-3.1682,-3.1678,-3.1744,-3.1734,-3.1738,-3.1736,-3.1782,-3.1778,-3.1934,-3.1953,-3.1814,-3.1816,-3.1817,0,-3.1458,-3.1497,-3.1517,-3.154,-3.1552,-3.1588,-3.161,-3.16,-3.1623,-3.1648,-3.1677,-3.1712,-3.174,-3.18,-3.1803,-3.1833,-3.1824,-3.1876,-3.1828,-3.1831,-3.1824,-3.1822,-3.1825,-3.1885,-3.1887,-3.1888,-3.1889,0,-3.1579,-3.1576,-3.1608,-3.1641,-3.1668,-3.1692,-3.1714,-3.1734,-3.1726,-3.1753,-3.1791,-3.1813,-3.1855,-3.189,-3.1919,-3.1927,-3.1907,-3.1905,-3.1917,-3.1921,-3.1922,-3.1922,-3.1764,-3.1901,-3.19,-3.1899,-3.1898,-3.1898,-3.1666,-3.17,-3.172,-3.1756,-3.1773,-3.1794,-3.1826,-3.1831,-3.1863,-3.1898,-3.189,-3.1933,-3.195,-3.1988,-3.1999,-3.2032,-3.2013,-3.203,-3.2035,-3.2039,-3.2045,-3.1918,-3.2037,-3.2037,-3.2037,-3.2036,-3.2036,0,-3.1785,-3.1797,-3.1831,-3.1864,-3.1892,-3.1873,-3.1897,-3.1922,-3.196,-3.1979,-3.2007,-3.2051,-3.2085,-3.2091,-3.2124,-3.2149,-3.214,-3.2157,-3.2155,-3.2157,-3.206,-3.2047,-3.2164,-3.2164,-3.2164,-3.2164,-3.2163,-3.2163,-3.185,-3.1907,-3.1907,-3.1971,-3.1982,-3.2025,-3.2041,-3.206,-3.2075,-3.2126,-3.2155,-3.2159,-3.2173,-3.2206,-3.2236,-3.2237,-3.2249,-3.227,-3.2267,-3.2177,-3.2164,-3.2152,-3.2139,-3.2273,-3.2273,-3.2361,-3.2362,-3.2363]}]]